Regional Weather Roundup
Issued by NWS

Home | Current Version | Previous Version | Graphics & Text | Print | Product List | Glossary On
Versions: 1 2 3 4 5 6 7 8 9 10 11 12 13 14 15 16 17 18 19 20 21 22 23 24 25 26 27 28 29 30 31 32 33 34 35 36 37 38 39 40 41 42 43 44 45 46 47 48 49 50
000
ASUS43 KFSD 282102
RWRSD

WEATHER ROUNDUP FOR SOUTH DAKOTA
NATIONAL WEATHER SERVICE SIOUX FALLS SD
400 PM CDT THU JUL 28 2016

NOTE: "FAIR" INDICATES FEW OR NO CLOUDS BELOW 12,000 FEET WITH NO
SIGNIFICANT WEATHER AND/OR OBSTRUCTIONS TO VISIBILITY.


SDZ001>005-009-010-012>017-282200-
NORTHWEST AND NORTH CENTRAL SOUTH DAKOTA

CITY           SKY/WX    TMP DP  RH WIND       PRES   REMARKS
BUFFALO          N/A     65  61  87 E6        30.08R
FAITH            N/A     67  62  84 NE10      30.11S
MOBRIDGE       PTSUNNY   78  54  43 NE5       30.08F
$$

SDZ012>016-024>037-041>051-057-063-072>074-282200-
SOUTHWEST AND SOUTH CENTRAL SOUTH DAKOTA

CITY           SKY/WX    TMP DP  RH WIND       PRES   REMARKS
RAPID CTY ARPT CLOUDY    72  58  61 N6        30.13F
PIERRE         CLOUDY    80  56  43 E10       30.04F
CUSTER         MOSUNNY   65  50  58 N10G16    30.25F
PHILIP         RAIN      66  65  96 NW10      30.08F
PINE RIDGE     MOSUNNY   77  56  48 NW12G23   30.12F
WINNER         CLOUDY    77  62  59 CALM      30.07F
$$

SDZ004>011-016>023-039-040-282200-
NORTHEAST SOUTH DAKOTA

CITY           SKY/WX    TMP DP  RH WIND       PRES   REMARKS
ABERDEEN       MOSUNNY   76  62  62 E7        30.07S
WATERTOWN      SUNNY     78  57  48 NE10      30.08R
BROOKINGS      MOSUNNY   75  58  55 E13       30.07S
SISSETON         N/A     78  59  51 E5        30.06F
$$

SDZ017-020-022-023-036>040-048>070-282200-
SOUTHEAST SOUTH DAKOTA

CITY           SKY/WX    TMP DP  RH WIND       PRES   REMARKS
SIOUX FALLS    PTSUNNY   77  61  57 NE12      30.02F
HURON          MOSUNNY   81  59  47 N3        30.03F
CHAMBERLAIN    CLOUDY    83  59  43 NE5       30.05F
MITCHELL       PTSUNNY   82  58  43 N10       30.03F
YANKTON        PTSUNNY   81  59  47 N7        30.00F
$$

ABBREVIATIONS USED IN REMARKS
   TC - TEMPERATURE IN CELSIUS
  WCI - WIND CHILL INDEX
   HX - HEAT INDEX
  VSB - VISIBILITY





USA.gov is the U.S. government's official web portal to all federal, state and local government web resources and services.